CW5834 Weather Reports


Display with metric or nautical units.
time (UTC)temp
F
wind
direction
speed
MPH
gust
MPH
rain 1hr
in
rain 24hr
in
rain mn
in
humidity
%
barometer
mb
20200704123021 76 0.0 0.0 0.00 0.00 0.00 87 1017.5
20200704122022 75 0.0 0.0 0.00 0.00 0.00 87 1017.4
20200704121017 73 0.0 0.0 0.00 0.00 0.00 90 1017.2
20200704120021 70 0.0 0.0 0.00 0.00 0.00 93 1017.0
20200704115022 70 0.0 0.0 0.00 0.00 0.00 94 1017.1
20200704114022 69 0.0 0.0 0.00 0.00 0.00 94 1017.2
20200704113032 68 0.0 0.0 0.00 0.00 0.00 94 1017.1
20200704112030 68 0.0 0.0 0.00 0.00 0.00 93 1017.1
20200704111041 68 0.0 0.0 0.00 0.00 0.00 94 1017.0
20200704110027 67 0.0 0.0 0.00 0.00 0.00 94 1016.8
20200704105035 67 0.0 0.0 0.00 0.00 0.00 93 1016.7
20200704104041 67 0.0 0.0 0.00 0.00 0.00 93 1016.7
20200704103046 67 0.0 0.0 0.00 0.00 0.00 93 1016.6
20200704102021 67 0.0 0.0 0.00 0.00 0.00 93 1016.6
20200704101022 68 0.0 0.0 0.00 0.00 0.00 93 1016.6
20200704100016 68 0.0 0.0 0.00 0.00 0.00 93 1016.7
20200704095021 68 0.0 0.0 0.00 0.00 0.00 93 1016.5
20200704094022 68 0.0 0.0 0.00 0.00 0.00 93 1016.5
20200704093021 68 0.0 0.0 0.00 0.00 0.00 93 1016.4
20200704092021 68 0.0 0.0 0.00 0.00 0.00 93 1016.5
20200704091022 68 0.0 0.0 0.00 0.00 0.00 93 1016.3
20200704090015 68 0.0 0.0 0.00 0.00 0.00 93 1016.3
20200704085016 68 0.0 0.0 0.00 0.00 0.00 92 1016.3
20200704084021 68 0.0 0.0 0.00 0.00 0.00 92 1016.4
20200704083020 68 0.0 0.0 0.00 0.00 0.00 92 1016.4
20200704082021 69 0.0 0.0 0.00 0.00 0.00 92 1016.5
20200704081021 69 0.0 0.0 0.00 0.00 0.00 92 1016.3
20200704080021 69 0.0 0.0 0.00 0.00 0.00 92 1016.4
20200704075015 69 0.0 0.0 0.00 0.00 0.00 92 1016.4
20200704074022 69 0.0 0.0 0.00 0.00 0.00 91 1016.7
20200704073020 69 0.0 0.0 0.00 0.00 0.00 91 1016.9
20200704072021 70 0.0 0.0 0.00 0.00 0.00 91 1016.8
20200704071022 70 0.0 0.0 0.00 0.00 0.00 91 1017.0
20200704070020 70 0.0 0.0 0.00 0.00 0.00 90 1017.0
20200704065021 70 0.0 0.0 0.00 0.00 0.00 90 1017.1
20200704064017 70 0.0 0.0 0.00 0.00 0.00 90 1017.0
20200704063020 71 0.0 0.0 0.00 0.00 0.00 90 1017.0
20200704062021 71 0.0 0.0 0.00 0.00 0.00 90 1017.2
20200704061022 71 0.0 0.0 0.00 0.00 0.00 90 1017.2
20200704060020 71 0.0 0.0 0.00 0.00 0.00 89 1017.3
20200704055021 71 0.0 0.0 0.00 0.00 0.00 90 1017.3
20200704054016 71 0.0 0.0 0.00 0.00 0.00 89 1017.4
20200704053020 72 0.0 0.0 0.00 0.00 0.00 89 1017.4
20200704052021 72 0.0 0.0 0.00 0.00 0.00 90 1017.5
20200704051022 71 0.0 0.0 0.00 0.00 0.00 89 1017.8
20200704050021 71 0.0 0.0 0.00 0.00 0.00 89 1017.8
20200704045018 71 0.0 0.0 0.00 0.00 0.00 89 1017.7
20200704044018 71 0.0 0.0 0.00 0.00 0.00 88 1017.7
20200704043022 71 0.0 0.0 0.00 0.00 0.00 89 1017.5
20200704042023 71 0.0 0.0 0.00 0.00 0.00 89 1017.5
20200704041024 71 0.0 0.0 0.00 0.00 0.00 89 1017.5
20200704040020 71 0.0 0.0 0.00 0.00 0.00 89 1017.4
20200704035021 71 0.0 0.0 0.00 0.00 0.00 89 1017.4
20200704034022 71 0.0 0.0 0.00 0.00 0.00 88 1017.4
20200704033021 71 0.0 0.0 0.00 0.00 0.00 89 1017.4
20200704032030 71 0.0 0.0 0.00 0.00 0.00 88 1017.4
20200704031016 71 0.0 0.0 0.00 0.00 0.00 88 1017.3
20200704030020 71 0.0 0.0 0.00 0.00 0.00 88 1017.0
20200704025021 72 0.0 0.0 0.00 0.00 0.00 87 1017.1
20200704024021 72 0.0 0.0 0.00 0.00 0.00 87 1016.9
20200704023029 72 0.0 0.0 0.00 0.00 0.00 86 1016.6
20200704022021 72 0.0 0.0 0.00 0.00 0.00 87 1016.5
20200704021021 73 0.0 0.0 0.00 0.00 0.00 86 1016.3
20200704020021 73 0.0 0.0 0.00 0.00 0.00 85 1016.2
20200704015021 74 0.0 0.0 0.00 0.00 0.00 84 1016.1
20200704014021 74 0.0 0.0 0.00 0.00 0.00 84 1016.0
20200704013021 75 0.0 0.0 0.00 0.00 0.00 83 1015.9
20200704012021 75 0.0 0.0 0.00 0.00 0.00 82 1015.7
20200704011022 76 0.0 0.0 0.00 0.00 0.00 80 1015.6
20200704010015 77 0.0 0.0 0.00 0.00 0.00 79 1015.5
20200704005020 77 0.0 0.0 0.00 0.00 0.00 78 1015.5
20200704004022 78 0.0 0.0 0.00 0.00 0.00 78 1015.5
20200704003020 79 0.0 0.0 0.00 0.00 0.00 75 1015.3
20200704002020 80 0.0 0.0 0.00 0.00 0.00 74 1015.3
20200704001021 80 0.0 0.0 0.00 0.00 0.00 72 1015.0
20200704000023 81 0.0 0.0 0.00 0.00 0.00 72 1015.0
20200703235023 82 0.0 0.0 0.00 0.00 0.00 69 1014.9
20200703234023 86 0.0 0.0 0.00 0.00 0.00 66 1015.0
20200703233022 88 0.0 0.0 0.00 0.00 0.00 60 1015.1
20200703232022 89 0.0 0.0 0.00 0.00 0.00 60 1015.3
20200703231024 89 0.0 0.0 0.00 0.00 0.00 56 1015.2
20200703230017 89 0.0 0.0 0.00 0.00 0.00 50 1015.1
20200703225023 89 0.0 0.0 0.00 0.00 0.00 60 1015.3
20200703224023 89 338 1.0 3.0 0.00 0.00 0.00 53 1015.3
20200703223022 89 0.0 3.0 0.00 0.00 0.00 52 1015.3
20200703222022 89 338 1.0 4.0 0.00 0.00 0.00 48 1015.3
20200703221023 89 338 1.0 4.0 0.00 0.00 0.00 49 1015.4
20200703220017 90 0.0 4.0 0.00 0.00 0.00 50 1015.5
20200703215022 90 0.0 5.0 0.00 0.00 0.00 49 1015.7
20200703214023 89 0.0 0.0 0.00 0.00 0.00 48 1015.7
20200703213022 89 315 1.0 5.0 0.00 0.00 0.00 53 1015.8
20200703212022 90 68 2.0 7.0 0.00 0.00 0.00 50 1015.9
20200703211023 90 0.0 0.0 0.00 0.00 0.00 52 1015.9
20200703210022 90 68 1.0 5.0 0.00 0.00 0.00 50 1016.1
20200703205017 90 0.0 3.0 0.00 0.00 0.00 49 1016.2
20200703204023 89 90 1.0 5.0 0.00 0.00 0.00 53 1016.2
20200703203022 89 0.0 0.0 0.00 0.00 0.00 51 1016.4
20200703202022 89 0.0 3.0 0.00 0.00 0.00 48 1016.5
20200703201023 89 0.0 3.0 0.00 0.00 0.00 53 1016.6
20200703200022 88 0.0 0.0 0.00 0.00 0.00 57 1016.7
20200703195016 88 0.0 0.0 0.00 0.00 0.00 55 1016.8
20200703194023 88 0.0 0.0 0.00 0.00 0.00 56 1016.9
20200703193022 87 0.0 0.0 0.00 0.00 0.00 54 1016.9
20200703192022 87 0.0 1.0 0.00 0.00 0.00 58 1016.8
20200703191023 86 0.0 0.0 0.00 0.00 0.00 56 1016.9
20200703190022 88 135 1.0 6.0 0.00 0.00 0.00 54 1017.0
20200703185022 89 0.0 3.0 0.00 0.00 0.00 62 1017.1
20200703184018 87 0.0 4.0 0.00 0.00 0.00 63 1017.0
20200703183022 87 0.0 0.0 0.00 0.00 0.00 65 1017.2
20200703182022 88 0.0 0.0 0.00 0.00 0.00 53 1017.3
20200703181023 88 0.0 2.0 0.00 0.00 0.00 54 1017.3
20200703180022 87 293 2.0 6.0 0.00 0.00 0.00 57 1017.4
20200703175022 88 0.0 0.0 0.00 0.00 0.00 58 1017.5
20200703174023 88 0.0 3.0 0.00 0.00 0.00 56 1017.6
20200703173016 87 0.0 4.0 0.00 0.00 0.00 54 1017.6
20200703172022 86 293 2.0 5.0 0.00 0.00 0.00 59 1017.8
20200703171022 87 0.0 0.0 0.00 0.00 0.00 58 1018.0
20200703170021 87 0.0 3.0 0.00 0.00 0.00 54 1018.0
20200703165022 87 0.0 0.0 0.00 0.00 0.00 54 1018.1
20200703164023 87 0.0 4.0 0.00 0.00 0.00 55 1018.2
20200703163016 87 0.0 3.0 0.00 0.00 0.00 57 1018.2
20200703162022 86 23 2.0 4.0 0.00 0.00 0.00 58 1018.2
20200703161022 86 315 1.0 5.0 0.00 0.00 0.00 61 1018.4
20200703160021 86 0.0 3.0 0.00 0.00 0.00 61 1018.6
20200703155021 86 0.0 0.0 0.00 0.00 0.00 70 1018.6
20200703154022 85 0.0 0.0 0.00 0.00 0.00 72 1018.7
20200703153016 84 0.0 0.0 0.00 0.00 0.00 67 1018.8
20200703152016 84 0 1.0 3.0 0.00 0.00 0.00 72 1018.8
20200703151022 84 0.0 0.0 0.00 0.00 0.00 70 1018.8
20200703150021 84 0.0 0.0 0.00 0.00 0.00 71 1018.8
20200703145021 83 0.0 0.0 0.00 0.00 0.00 75 1018.7
20200703144023 82 0.0 0.0 0.00 0.00 0.00 75 1018.8
20200703143022 81 0.0 0.0 0.00 0.00 0.00 74 1018.8
20200703142017 82 0.0 0.0 0.00 0.00 0.00 74 1018.9
20200703141022 80 0.0 0.0 0.00 0.00 0.00 76 1018.9
20200703140021 79 0.0 0.0 0.00 0.00 0.00 77 1018.9
20200703135022 79 0.0 3.0 0.00 0.00 0.00 77 1018.9
20200703134023 79 0.0 0.0 0.00 0.00 0.00 77 1018.9
20200703133021 79 0.0 0.0 0.00 0.00 0.00 80 1018.8
20200703132021 77 0.0 0.0 0.00 0.00 0.00 83 1018.7
20200703131017 77 0.0 0.0 0.00 0.00 0.00 80 1018.9
20200703130021 77 0.0 0.0 0.00 0.00 0.00 81 1018.7
20200703125021 75 0.0 0.0 0.00 0.00 0.00 84 1018.5
20200703124022 74 0.0 0.0 0.00 0.00 0.00 84 1018.4